SR9WXG Weather Reports


time (UTC)temp
C
wind
direction
speed
KPH
gust
KPH
rain 1hr
cm
rain 24hr
cm
rain mn
cm
humidity
%
barometer
mb
20260507163712 0 0 4.8 8.0 0.00 0.00 0.00 100 943.5
20260507163215 0 0 9.7 11.3 0.00 0.00 0.00 100 943.5
20260507162630 0 0 8.0 9.7 0.00 0.00 0.00 100 943.5
20260507161817 0 0 8.0 12.9 0.00 0.00 0.00 100 943.5
20260507160928 0 0 6.4 17.7 0.00 0.00 0.00 100 943.4
20260507155342 0 0 8.0 11.3 0.00 0.00 0.00 100 943.5
20260507154942 0 0 9.7 16.1 0.00 0.00 0.00 100 943.4
20260507154540 0 0 9.7 12.9 0.00 0.00 0.00 100 943.4
20260507154140 0 0 9.7 14.5 0.00 0.00 0.00 100 943.5
20260507153740 0 0 9.7 12.9 0.00 0.00 0.00 100 943.5
20260507153231 0 0 11.3 16.1 0.00 0.00 0.00 100 943.5
20260507152713 0 0 9.7 12.9 0.00 0.00 0.00 100 943.6
20260507143046 0 0 9.7 11.3 0.00 0.00 0.00 100 943.0
20260507140325 0 0 6.4 8.0 0.00 0.00 0.00 100 942.3
20260507135925 0 0 6.4 8.0 0.00 0.00 0.00 100 942.3
20260507135525 0 0 6.4 8.0 0.00 0.00 0.00 100 942.3
20260507135124 0 0 3.2 6.4 0.00 0.00 0.00 100 942.4
20260507134724 0 0 3.2 4.8 0.00 0.00 0.00 100 942.5
20260507134322 0 0 4.8 6.4 0.00 0.00 0.00 100 942.5
20260507133922 0 0 4.8 9.7 0.00 0.00 0.00 100 942.5
20260507133522 0 0 4.8 8.0 0.00 0.00 0.00 100 942.5
20260507132628 0 0 9.7 12.9 0.00 0.00 0.00 100 942.5
20260507131834 0 0 12.9 17.7 0.00 0.00 0.00 100 942.3
20260507131434 0 0 12.9 19.3 0.00 0.00 0.00 100 942.3
20260507131033 0 0 14.5 20.9 0.00 0.00 0.00 100 942.2
20260507130633 0 0 8.0 12.9 0.00 0.00 0.00 100 942.3
20260507130234 0 0 8.0 11.3 0.00 0.00 0.00 100 942.2
20260507125832 0 0 6.4 9.7 0.00 0.00 0.00 100 942.2
20260507125432 0 0 4.8 8.0 0.00 0.00 0.00 100 942.1
20260507125032 0 0 3.2 6.4 0.00 0.00 0.00 100 942.0
20260507124631 0 0 3.2 6.4 0.00 0.00 0.00 100 942.0
20260507124231 0 0 4.8 8.0 0.00 0.00 0.00 100 942.0
20260507123829 0 0 4.8 8.0 0.00 0.00 0.00 100 942.0
20260507123429 0 0 11.3 14.5 0.00 0.00 0.00 100 941.9
20260507123029 0 0 16.1 25.7 0.00 0.00 0.00 100 941.7
20260507122628 0 0 9.7 17.7 0.00 0.00 0.00 100 941.7
20260507122229 0 0 4.8 9.7 0.00 0.00 0.00 100 941.7
20260507121827 0 0 8.0 14.5 0.00 0.00 0.00 100 941.7
20260507121427 0 0 6.4 9.7 0.00 0.00 0.00 100 941.6
20260507121027 0 0 6.4 11.3 0.00 0.00 0.00 100 941.6
20260507120619 0 0 6.4 12.9 0.00 0.00 0.00 100 941.6
20260507120217 0 0 9.7 16.1 0.00 0.00 0.00 100 941.6
20260507115814 0 0 6.4 12.9 0.00 0.00 0.00 100 941.6
20260507115413 0 0 8.0 12.9 0.00 0.00 0.00 100 941.6
20260507115013 0 0 8.0 12.9 0.00 0.00 0.00 100 941.6
20260507114613 0 0 6.4 9.7 0.00 0.00 0.00 100 941.6
20260507114213 0 0 8.0 46.7 0.00 0.00 0.00 100 941.6
20260507113811 0 0 6.4 9.7 0.00 0.00 0.00 100 941.7
20260507113411 0 0 8.0 12.9 0.00 0.00 0.00 100 941.7
20260507113010 0 0 3.2 4.8 0.00 0.00 0.00 100 941.7
20260507112610 0 0 8.0 14.5 0.00 0.00 0.00 100 941.6
20260507112210 0 0 6.4 12.9 0.00 0.00 0.00 100 941.7
20260507111808 0 0 8.0 14.5 0.00 0.00 0.00 100 941.7
20260507111408 0 0 9.7 12.9 0.00 0.00 0.00 100 941.6
20260507111008 0 0 6.4 9.7 0.00 0.00 0.00 100 941.7
20260507110608 0 0 6.4 11.3 0.00 0.00 0.00 100 941.7
20260507110208 0 0 8.0 12.9 0.00 0.00 0.00 100 941.6
20260507105806 0 0 8.0 16.1 0.00 0.00 0.00 100 941.6
20260507105406 0 0 6.4 9.7 0.00 0.00 0.00 100 941.6
20260507105005 0 0 6.4 9.7 0.00 0.00 0.00 100 941.6
20260507104606 0 0 9.7 16.1 0.00 0.00 0.00 100 941.6
20260507104205 0 0 8.0 12.9 0.00 0.00 0.00 100 941.6
20260507103803 0 0 6.4 9.7 0.00 0.00 0.00 100 941.6
20260507103403 0 0 6.4 9.7 0.00 0.00 0.00 100 941.5
20260507103004 0 0 6.4 12.9 0.00 0.00 0.00 100 941.5
20260507102603 0 0 6.4 9.7 0.00 0.00 0.00 100 941.6
20260507102203 0 0 8.0 12.9 0.00 0.00 0.00 100 941.6
20260507101801 0 0 6.4 8.0 0.00 0.00 0.00 100 941.6
20260507101401 0 0 6.4 11.3 0.00 0.00 0.00 100 941.7
20260507101001 0 0 6.4 9.7 0.00 0.00 0.00 100 941.6
20260507100600 0 0 9.7 19.3 0.00 0.00 0.00 100 941.6
20260507100200 0 0 6.4 12.9 0.00 0.00 0.00 100 941.5
20260507095758 0 0 4.8 8.0 0.00 0.00 0.00 100 941.5
20260507095358 0 0 6.4 11.3 0.00 0.00 0.00 100 941.5
20260507094958 0 0 9.7 14.5 0.00 0.00 0.00 100 941.5
20260507094551 0 0 11.3 19.3 0.00 0.00 0.00 100 941.5
20260507094149 0 0 4.8 6.4 0.00 0.00 0.00 100 941.5
20260507093746 0 0 4.8 9.7 0.00 0.00 0.00 100 941.6
20260507093345 0 0 4.8 6.4 0.00 0.00 0.00 100 941.5
20260507092944 0 0 4.8 9.7 0.00 0.00 0.00 100 941.5
20260507092544 0 0 8.0 12.9 0.00 0.00 0.00 100 941.4
20260507092144 0 0 6.4 9.7 0.00 0.00 0.00 100 941.4
20260507091743 0 0 8.0 17.7 0.00 0.00 0.00 100 941.3
20260507091343 0 0 6.4 9.7 0.00 0.00 0.00 100 941.3
20260507090942 0 0 4.8 9.7 0.00 0.00 0.00 100 941.3
20260507090542 0 0 4.8 8.0 0.00 0.00 0.00 100 941.2
20260507090142 0 0 6.4 11.3 0.00 0.00 0.00 100 941.1
20260507085740 0 0 8.0 17.7 0.00 0.00 0.00 100 941.0
20260507085340 0 0 9.7 16.1 0.00 0.00 0.00 100 940.9
20260507084939 0 0 11.3 20.9 0.00 0.00 0.00 100 940.9
20260507084539 0 0 12.9 24.1 0.00 0.00 0.00 100 940.7
20260507084140 0 0 9.7 19.3 0.00 0.00 0.00 100 940.8
20260507083738 0 0 9.7 19.3 0.00 0.00 0.00 100 940.8
20260507083338 0 0 11.3 17.7 0.00 0.00 0.00 100 940.8
20260507082937 0 0 9.7 24.1 0.00 0.00 0.00 100 940.7
20260507082537 0 0 11.3 19.3 0.00 0.00 0.00 100 940.7
20260507082137 0 0 12.9 25.7 0.00 0.00 0.00 100 940.7
20260507081735 0 0 12.9 25.7 0.00 0.00 0.00 100 940.7
20260507081335 0 0 11.3 16.1 0.00 0.00 0.00 100 940.7
20260507080935 0 0 11.3 20.9 0.00 0.00 0.00 100 940.6
20260507080535 0 0 12.9 22.5 0.00 0.00 0.00 100 940.6
20260507080135 0 0 14.5 22.5 0.00 0.00 0.00 100 940.5
20260507075733 0 0 9.7 17.7 0.00 0.00 0.00 100 940.4
20260507075333 0 0 11.3 22.5 0.00 0.00 0.00 100 940.3
20260507074933 0 0 9.7 20.9 0.00 0.00 0.00 100 940.4
20260507074532 0 0 12.9 22.5 0.00 0.00 0.00 100 940.4
20260507074132 0 0 9.7 16.1 0.00 0.00 0.00 100 940.3
20260507073730 0 0 11.3 19.3 0.00 0.00 0.00 100 940.3
20260507073330 0 0 6.4 11.3 0.00 0.00 0.00 100 940.4
20260507072930 0 0 6.4 11.3 0.00 0.00 0.00 100 940.3
20260507072522 0 0 3.2 9.7 0.00 0.00 0.00 100 940.4
20260507072121 0 0 8.0 12.9 0.00 0.00 0.00 100 940.3
20260507071718 0 0 6.4 8.0 0.00 0.00 0.00 100 940.3
20260507071317 0 0 6.4 12.9 0.00 0.00 0.00 100 940.4
20260507070916 0 0 4.8 8.0 0.00 0.00 0.00 100 940.5
20260507070516 0 0 6.4 8.0 0.00 0.00 0.00 100 940.5
20260507070116 0 0 4.8 9.7 0.00 0.00 0.00 100 940.4
20260507065714 0 0 3.2 6.4 0.00 0.00 0.00 100 940.4
20260507065314 0 0 8.0 14.5 0.00 0.00 0.00 100 940.3
20260507064914 0 0 3.2 8.0 0.00 0.00 0.00 100 940.3
20260507064514 0 0 8.0 12.9 0.00 0.00 0.00 100 940.2
20260507064114 0 0 6.4 19.3 0.00 0.00 0.00 100 940.3
20260507063712 0 0 6.4 9.7 0.00 0.00 0.00 100 940.3
20260507063312 0 0 3.2 6.4 0.00 0.00 0.00 100 940.4
20260507062911 0 0 6.4 11.3 0.00 0.00 0.00 100 940.4
20260507062511 0 0 9.7 16.1 0.00 0.00 0.00 100 940.4
20260507062111 0 0 9.7 12.9 0.00 0.00 0.00 100 940.4
20260507061709 0 0 14.5 20.9 0.00 0.00 0.00 100 940.4
20260507061309 0 0 11.3 20.9 0.00 0.00 0.00 100 940.4
20260507060909 0 0 11.3 19.3 0.00 0.00 0.00 100 940.5
20260507060509 0 0 14.5 27.4 0.00 0.00 0.00 100 940.4
20260507060109 0 0 11.3 19.3 0.00 0.00 0.00 100 940.4
20260507055707 0 0 9.7 16.1 0.00 0.00 0.00 100 940.5
20260507055307 0 0 8.0 12.9 0.00 0.00 0.00 100 940.5
20260507054907 0 0 3.2 6.4 0.00 0.00 0.00 100 940.5
20260507054506 0 0 4.8 11.3 0.00 0.00 0.00 100 940.5
20260507054106 0 0 6.4 14.5 0.00 0.00 0.00 100 940.4
20260507053704 0 0 4.8 9.7 0.00 0.00 0.00 100 940.3
20260507053304 0 0 8.0 16.1 0.00 0.00 0.00 100 940.3
20260507052904 0 0 12.9 22.5 0.00 0.00 0.00 100 940.2
20260507052504 0 0 11.3 17.7 0.00 0.00 0.00 100 940.3
20260507052104 0 0 4.8 12.9 0.00 0.00 0.00 100 940.4
20260507051702 0 0 4.8 14.5 0.00 0.00 0.00 100 940.4
20260507051302 0 0 6.4 12.9 0.00 0.00 0.00 100 940.6
20260507050902 0 0 1.6 6.4 0.00 0.00 0.00 100 940.7
20260507050213 0 0 4.8 9.7 0.00 0.00 0.00 100 940.7
20260507045813 0 0 8.0 14.5 0.00 0.00 0.00 100 940.7
20260507045413 0 0 6.4 9.7 0.00 0.00 0.00 100 940.7
20260507044742 0 0 11.3 16.1 0.00 0.00 0.00 100 940.5